Location: Morlupo
(42.1333°N, 12.5000°E)
Time: 16:06:14
(UTC+00:00)

NOSS 3-2 (C) - Pass Details

Date: 18 September 2020
Orbit: 795 x 1418 km, 63.4° (Epoch: 02 October)

Event Time Altitude Azimuth Distance (km) Brightness Sun altitude
Rises 20:36:17 0° 321° (NW) 4,043 7.7 -35.2°
Reaches altitude 10° 20:38:55 10° 318° (NW) 3,160 6.9 -35.5°
Enters shadow 20:46:12 59° 250° (WSW) 1,505 4.4 -36.5°
